Regional Weather Roundup
Issued by NWS

Home | Current Version | Previous Version | Text Only | Print | Product List | Glossary Off
Versions: 1 2 3 4 5 6 7 8 9 10 11 12 13 14 15 16 17 18 19 20 21 22 23 24 25 26 27 28 29 30 31 32 33 34 35 36 37 38 39 40 41 42 43 44 45 46 47 48 49 50

458
ASUS43 KTOP 201908
RWRKS

WEATHER ROUNDUP FOR KANSAS
NATIONAL WEATHER SERVICE GOODLAND KS
200 PM CDT THU JUL 20 2017

NOTE:  "FAIR" INDICATES FEW OR NO CLOUDS BELOW 12,000 FEET WITH NO
SIGNIFICANT WEATHER AND/OR OBSTRUCTIONS TO VISIBILITY.

KSZ001>006-013>018-027>032-041>047-202000-
NORTHWEST KANSAS

CITY           SKY/WX    TMP DP  RH WIND       PRES   REMARKS
GOODLAND       SUNNY     91  63  39 S9        30.04F
HAYS           SUNNY    102  60  25 S15G22    29.97F HX 103
HILL CITY      MOSUNNY  103  60  24 S12G20    29.97F HX 104
RUSSELL        MOSUNNY  102  59  24 S17G24    29.96F HX 102
$$

KSZ061>065-074>080-084>089-202000-
SOUTHWEST KANSAS

CITY           SKY/WX    TMP DP  RH WIND       PRES   REMARKS
DODGE CITY     SUNNY     99  54  22 SW18G29   30.03F HX  97
ELKHART          N/A     94  52  24 S10         N/A
GARDEN CITY    SUNNY     98  57  25 S23G32    30.02F HX  97
LIBERAL        SUNNY     97  60  29 S20G31    30.06F HX  97
PRATT          MOSUNNY   98  59  27 S18G26    30.02F HX  97
$$

KSZ066>073-081>083-090>101-202000-
SOUTHEAST KANSAS

CITY           SKY/WX    TMP DP  RH WIND       PRES   REMARKS
CHANUTE        SUNNY     96  71  44 S8G18     30.04F HX 103
COFFEYVILLE    SUNNY     95  74  50 S13G21    30.04F HX 105
HUTCHINSON     MOSUNNY  101  63  28 S14       29.99F HX 103
MEDICINE LODGE   N/A    102  59  24 S18G26    29.99F HX 102
NEWTON         SUNNY    100  66  32 S10G24    30.02F HX 104
PARSONS        SUNNY     95  73  48 S12       30.05F HX 104
WICHITA INTL   MOSUNNY  100  65  31 SW14G26   30.00F HX 103
WICHITA JABRA  SUNNY    100  67  33 S15       30.01F HX 105
WICHITA MCCONL SUNNY     99  66  33 S17G24    30.02F HX 103
WINFIELD       SUNNY    100  67  33 S17G30    30.03F HX 105
$$

KSZ007>012-019>026-033>040-048>060-102>105-202000-
NORTHEAST KANSAS

CITY           SKY/WX    TMP DP  RH WIND       PRES   REMARKS
CONCORDIA      SUNNY    101  68  34 SW8G17    29.97F HX 106
EMPORIA        SUNNY     98  70  40 S17G23    30.01F HX 105
LAWRENCE       SUNNY     98  75  47 S9        30.00F HX 110
MANHATTAN      SUNNY    101  70  36 SW10G20   29.97F HX 108
MARYSVILLE     SUNNY     99  72  41 SW7       29.98S HX 107
OLATHE IND     SUNNY     95  74  50 S16       30.03F HX 105
OLATHE EXE     SUNNY     92  75  57 SW10G20   30.04S HX 103
SALINA         SUNNY    105  65  27 S13G22    29.96F HX 109
TOPEKA BILLARD SUNNY     97  74  47 S8        29.99F HX 108
TOPEKA FORBES  SUNNY     98  74  45 S12       30.00F HX 109
$$




USA.gov is the U.S. government's official web portal to all federal, state and local government web resources and services.